DELTA 1 DEB, 39097

Orbit data source: Space-Track

DELTA 1 DEB, 39097 is space debris in SSO originally from a launch on Tue, 06 Nov 1973 UTC launched from the Air Force Western Test Range (AFWTR). Debris objects in space refer to the collection of defunct objects orbiting the Earth. Examples of debris include non-operational satellites, rocket bodies, and fragments generated from explosions, collisions, or faulty payload assembly.

Loading next visibility...
Identifier
39097, 1973-086HK
Orbit
SSO
Country
Flag of USUS
Related business
Manufacturer
Unknown
Mission
Spacecraft
Bus & Motor
Unknown
Mass
Unknown
Launch date (UTC)
1973-11-06 (52 years ago)
Launch vehicle
Unknown
Launch site
Air Force Western Test Range (AFWTR)
Object type
Payload
Rocket body
Debris
Shape & HBR
Unknown shape, 0.1 m
Radar Cross Section
Small (<0.1 m²)

Expand to show TLE details & history
Last TLE update: 2 days ago

TLE from 2 days ago
0 DELTA 1 DEB
1 39097U 73086HK  25295.32777439 -.00000025  00000-0  16912-3 0  9997
2 39097 102.4106 316.0791 0031115 330.3192  50.7397 12.33948203575679
Epoch: 2025-10-22T07:51Z
TLE epoch observation values (Epoch: 2025-10-22T07:51:59.707Z)
Latitude
20.82312°
Longitude
162.29992°
Altitude
1,519.045 km
Speed
7.114 km/s
True Right ascension
20h 45m 12s
True Declination
20° 43' 12"
Sunlit
Object was in daylight at epoch
Visualization orbit readout
Latitude
Unknown
Longitude
Unknown
Altitude
Unknown
Speed
Unknown
Apparent Right ascension
Unknown
Apparent Declination
Unknown
Sunlit
N/A
Visualization observer readout
Local Sidereal Time
07:28:30
Azimuth
Unknown
Elevation
Unknown
Doppler factor
Unknown
Orbital elements
Apogee altitude
1,554.576 km
Perigee altitude
1,505.363 km
Semi-major axis
7,908.107 km
Eccentricity
0.00311
Inclination
102.4106°
RAAN
316.0791°
Arg. of periapsis
330.3192°
True anomaly
51.01645°
Mean anomaly
50.7397°
Eccentric anomaly
50.87801°
Mean motion
3.08627 °/min
Orbital period
116.65 mins
BSTAR
0.00016912
Loading maneuver chart data...
Computing Atmospheric mass density...
Loading historical data...
Loading historical data...
Loading historical data...
Loading historical data...
Loading historical data...
Loading historical data...
Loading historical data...

Documentation

Showing up to 5 results
|